Weather History for Fort Leonard Wood, MO

Change the Weather History Date:

Monday, December 31, 2012

  Actual Average Record
Temperature  
Mean Temperature 34 °F -  
Max Temperature 36 °F 40 °F 68 °F (2004)
Min Temperature 31 °F 26 °F 12 °F (1998)
Degree Days  
Heating Degree Days 32    
Moisture  
Dew Point 32 °F    
Average Humidity 97    
Maximum Humidity 100    
Minimum Humidity 51    
Precipitation  
Precipitation 0.16 in - - ()
Sea Level Pressure  
Sea Level Pressure 30.11 in    
Wind  
Wind Speed 5 mph (ESE)    
Max Wind Speed 10 mph    
Max Gust Speed -    
Visibility 4 miles    
Events Rain , Snow    
Averages and records for this station are not official NWS values.
T = Trace of Precipitation, MM = Missing Value Source: NWS Daily Summary

Daily Weather History Graph

Daily Weather History Graph

Search for Another Location

Airport:

Trip Planner

Search our weather history database for the weather conditions in past years. The results will help you decide how hot, cold, wet, or windy it might be!

Date:

Astronomy

Dec. 31, 2012 Rise Set
Actual Time 7:23 AM CST 5:00 PM CST
Civil Twilight 6:54 AM CST 5:29 PM CST
Nautical Twilight 6:21 AM CST 6:02 PM CST
Astronomical Twilight 5:49 AM CST 6:34 PM CST
Moon 8:26 PM CST (12/31) 9:09 AM CST (12/31)
Length of Visible Light 10h 34m
Length of Day
9h 36m
Waning Gibbous, 90% of the Moon is Illuminated
Dec 31
Waning Gibbous
Jan 4
Last Quarter
Jan 11
New
Jan 18
First Quarter
Jan 26
Full

Hourly Weather History & Observations

Time (CST) Temp. Windchill Dew Point Humidity Pressure Visibility Wind Dir Wind Speed Gust Speed Precip Events Conditions
12:55 AM 36.3 °F 30.8 °F 19.6 °F 51% 30.22 in 10.0 mi SSW 6.9 mph - N/A   Mostly Cloudy
1:55 AM 36.0 °F 28.5 °F 21.0 °F 55% 30.22 in 10.0 mi South 10.4 mph - N/A   Mostly Cloudy
2:55 AM 35.4 °F 29.0 °F 22.1 °F 58% 30.21 in 10.0 mi South 8.1 mph - N/A   Partly Cloudy
3:55 AM 35.2 °F 28.8 °F 22.6 °F 60% 30.21 in 10.0 mi South 8.1 mph - N/A   Overcast
4:55 AM 35.1 °F 29.3 °F 23.0 °F 61% 30.18 in 10.0 mi South 6.9 mph - N/A   Scattered Clouds
5:42 AM 35.6 °F 30.7 °F 23.0 °F 60% 30.17 in 10.0 mi South 5.8 mph - N/A   Light Drizzle
5:55 AM 35.1 °F 29.3 °F 24.8 °F 66% 30.18 in 10.0 mi SSW 6.9 mph - 0.00 in   Light Drizzle
6:03 AM 35.6 °F 29.9 °F 26.6 °F 70% 30.19 in 8.0 mi SSW 6.9 mph - N/A Snow Light Snow
6:12 AM 33.8 °F 28.6 °F 28.4 °F 81% 30.19 in 3.0 mi SSW 5.8 mph - N/A Snow Light Snow
6:15 AM 33.8 °F 29.6 °F 28.4 °F 81% 30.19 in 2.5 mi SW 4.6 mph - N/A Snow Light Snow
6:21 AM 32.0 °F 26.4 °F 30.2 °F 93% 30.19 in 1.8 mi SSW 5.8 mph - N/A Snow Light Snow
6:24 AM 32.0 °F 26.4 °F 30.2 °F 93% 30.19 in 1.5 mi SSW 5.8 mph - N/A Snow Light Snow
6:30 AM 32.0 °F 26.4 °F 30.2 °F 93% 30.20 in 1.5 mi SSW 5.8 mph - N/A Snow Light Snow
6:32 AM 32.0 °F 26.4 °F 32.0 °F 100% 30.20 in 1.2 mi SSW 5.8 mph - N/A Snow Light Snow
6:47 AM 32.0 °F 27.5 °F 32.0 °F 100% 30.19 in 1.2 mi South 4.6 mph - N/A Snow Light Snow
6:55 AM 31.5 °F 25.8 °F 31.3 °F 99% 30.19 in 1.2 mi SSW 5.8 mph - 0.05 in Snow Light Snow
7:03 AM 32.0 °F 27.5 °F 32.0 °F 100% 30.18 in 1.2 mi SSW 4.6 mph - N/A Snow Light Snow
7:08 AM 32.0 °F 28.7 °F 32.0 °F 100% 30.18 in 1.5 mi SSW 3.5 mph - N/A Snow Light Snow
7:14 AM 32.0 °F 27.5 °F 32.0 °F 100% 30.18 in 1.5 mi SSW 4.6 mph - N/A Snow Light Snow
7:18 AM 32.0 °F 28.7 °F 32.0 °F 100% 30.18 in 1.2 mi SSW 3.5 mph - N/A Snow Light Snow
7:22 AM 32.0 °F 28.7 °F 32.0 °F 100% 30.18 in 1.0 mi SSW 3.5 mph - N/A Snow Light Snow
7:23 AM 32.0 °F 28.7 °F 32.0 °F 100% 30.18 in 1.0 mi South 3.5 mph - N/A Snow Light Snow
7:24 AM 32.0 °F 28.7 °F 32.0 °F 100% 30.17 in 0.8 mi South 3.5 mph - N/A Snow Light Snow
7:31 AM 32.0 °F 27.5 °F 32.0 °F 100% 30.19 in 1.0 mi SSW 4.6 mph - N/A Snow Light Snow
7:33 AM 32.0 °F 26.4 °F 32.0 °F 100% 30.19 in 1.2 mi South 5.8 mph - N/A Snow Light Snow
7:34 AM 32.0 °F 27.5 °F 32.0 °F 100% 30.19 in 1.8 mi South 4.6 mph - N/A Snow Light Snow
7:35 AM 32.0 °F 27.5 °F 32.0 °F 100% 30.18 in 2.0 mi South 4.6 mph - N/A Snow Light Snow
7:37 AM 32.0 °F 26.4 °F 32.0 °F 100% 30.18 in 3.0 mi South 5.8 mph - N/A   Overcast
7:39 AM 32.0 °F 26.4 °F 32.0 °F 100% 30.18 in 4.0 mi South 5.8 mph - N/A   Overcast
7:40 AM 32.0 °F 27.5 °F 32.0 °F 100% 30.19 in 4.0 mi South 4.6 mph - N/A   Overcast
7:41 AM 32.0 °F 27.5 °F 32.0 °F 100% 30.19 in 4.0 mi South 4.6 mph - N/A   Overcast
7:42 AM 32.0 °F 26.4 °F 32.0 °F 100% 30.19 in 4.0 mi South 5.8 mph - N/A   Overcast
7:45 AM 32.0 °F 27.5 °F 32.0 °F 100% 30.19 in 4.0 mi South 4.6 mph - N/A   Overcast
7:55 AM 31.6 °F 27.0 °F 31.5 °F 99% 30.19 in 5.0 mi Variable 4.6 mph - 0.05 in   Overcast
8:05 AM 32.0 °F 26.4 °F 32.0 °F 100% 30.19 in 6.0 mi SSW 5.8 mph - N/A   Overcast
8:12 AM 32.0 °F 24.8 °F 32.0 °F 100% 30.19 in 5.0 mi SSW 8.1 mph - N/A Snow Light Snow
8:14 AM 32.0 °F 26.4 °F 32.0 °F 100% 30.18 in 4.0 mi SSW 5.8 mph - N/A Snow Light Snow
8:22 AM 32.0 °F 27.5 °F 32.0 °F 100% 30.18 in 2.5 mi Variable 4.6 mph - N/A Snow Light Snow
8:27 AM 32.0 °F 27.5 °F 32.0 °F 100% 30.18 in 1.8 mi Variable 4.6 mph - N/A Snow Light Snow
8:35 AM 32.0 °F 27.5 °F 32.0 °F 100% 30.17 in 2.0 mi SSW 4.6 mph - N/A Snow Light Snow
8:50 AM 32.0 °F 28.7 °F 32.0 °F 100% 30.17 in 3.0 mi SSW 3.5 mph - N/A Snow Light Snow
8:55 AM 32.4 °F 27.9 °F 32.2 °F 99% 30.17 in 4.0 mi South 4.6 mph - 0.01 in Snow Light Snow
9:22 AM 32.0 °F 28.7 °F 32.0 °F 100% 30.18 in 2.5 mi SSW 3.5 mph - N/A Snow Light Snow
9:36 AM 32.0 °F 27.5 °F 32.0 °F 100% 30.17 in 3.0 mi South 4.6 mph - N/A Snow Light Snow
9:39 AM 32.0 °F 28.7 °F 32.0 °F 100% 30.18 in 2.5 mi South 3.5 mph - N/A Snow Light Snow
9:44 AM 32.0 °F 27.5 °F 32.0 °F 100% 30.18 in 3.0 mi South 4.6 mph - N/A Snow Light Snow
9:54 AM 32.0 °F 27.5 °F 32.0 °F 100% 30.17 in 6.0 mi South 4.6 mph - N/A Snow Light Snow
9:55 AM 32.9 °F 28.5 °F 32.5 °F 99% 30.17 in 6.0 mi South 4.6 mph - 0.01 in Snow Light Snow
10:44 AM 33.8 °F 30.8 °F 33.8 °F 100% 30.17 in 10.0 mi South 3.5 mph - N/A   Mostly Cloudy
10:55 AM 33.8 °F 29.6 °F 33.6 °F 99% 30.17 in 10.0 mi South 4.6 mph - 0.00 in   Overcast
11:55 AM 34.3 °F 30.2 °F 34.2 °F 99% 30.14 in 10.0 mi Variable 4.6 mph - N/A   Overcast
12:06 PM 33.8 °F 30.8 °F 33.8 °F 100% 30.14 in 10.0 mi SSW 3.5 mph - N/A   Overcast
12:20 PM 35.6 °F 30.7 °F 33.8 °F 93% 30.13 in 10.0 mi Variable 5.8 mph - N/A   Overcast
12:34 PM 33.8 °F 30.8 °F 33.8 °F 100% 30.11 in 10.0 mi South 3.5 mph - N/A   Overcast
12:42 PM 35.6 °F 32.8 °F 33.8 °F 93% 30.07 in 10.0 mi Variable 3.5 mph - N/A Snow Light Snow
12:55 PM 34.7 °F - 34.5 °F 99% 30.10 in 3.0 mi Calm Calm - 0.00 in Snow Light Snow
1:28 PM 33.8 °F - 33.8 °F 100% 30.09 in 2.5 mi Calm Calm - N/A Snow Light Snow
1:32 PM 33.8 °F - 33.8 °F 100% 30.08 in 2.5 mi Calm Calm - N/A Snow Light Snow
1:45 PM 33.8 °F - 32.0 °F 93% 30.08 in 3.0 mi Calm Calm - N/A Snow Light Snow
1:51 PM 33.8 °F - 32.0 °F 93% 30.08 in 4.0 mi Calm Calm - N/A Snow Light Snow
1:55 PM 33.1 °F - 32.9 °F 99% 30.08 in 4.0 mi Calm Calm - 0.03 in Rain Light Rain
2:00 PM 33.8 °F - 33.8 °F 100% 30.09 in 4.0 mi Calm Calm - N/A Rain Light Rain
2:30 PM 33.8 °F 29.6 °F 33.8 °F 100% 30.06 in 3.0 mi ENE 4.6 mph - N/A Rain Light Rain
2:34 PM 33.8 °F 29.6 °F 33.8 °F 100% 30.06 in 2.5 mi East 4.6 mph - N/A Rain Light Rain
2:35 PM 33.8 °F 29.6 °F 33.8 °F 100% 30.06 in 2.5 mi East 4.6 mph - N/A   Overcast
2:47 PM 33.8 °F 29.6 °F 33.8 °F 100% 30.06 in 3.0 mi East 4.6 mph - N/A   Overcast
2:49 PM 33.8 °F 30.8 °F 33.8 °F 100% 30.07 in 3.0 mi East 3.5 mph - N/A   Overcast
2:50 PM 33.8 °F 30.8 °F 33.8 °F 100% 30.07 in 3.0 mi East 3.5 mph - N/A   Overcast
2:52 PM 33.8 °F 30.8 °F 33.8 °F 100% 30.07 in 3.0 mi East 3.5 mph - N/A   Overcast
2:55 PM 33.1 °F 30.0 °F 33.1 °F 100% 30.07 in 4.0 mi ENE 3.5 mph - 0.00 in   Overcast
2:59 PM 33.8 °F - 33.8 °F 100% 30.07 in 4.0 mi Calm Calm - N/A   Overcast
3:00 PM 33.8 °F 30.8 °F 33.8 °F 100% 30.07 in 4.0 mi ENE 3.5 mph - N/A   Overcast
3:05 PM 33.8 °F 30.8 °F 33.8 °F 100% 30.07 in 4.0 mi ENE 3.5 mph - N/A   Overcast
3:19 PM 33.8 °F 29.6 °F 33.8 °F 100% 30.06 in 3.0 mi East 4.6 mph - N/A   Overcast
3:21 PM 33.8 °F 29.6 °F 33.8 °F 100% 30.06 in 3.0 mi East 4.6 mph - N/A   Overcast
3:55 PM 33.1 °F 30.0 °F 33.1 °F 100% 30.06 in 4.0 mi ENE 3.5 mph - 0.00 in   Overcast
4:48 PM 33.8 °F - 33.8 °F 100% 30.06 in 1.5 mi Calm Calm - N/A   Overcast
4:50 PM 33.8 °F - 33.8 °F 100% 30.07 in 1.8 mi Calm Calm - N/A   Overcast
4:55 PM 33.3 °F 28.9 °F 33.3 °F 100% 30.06 in 1.8 mi ENE 4.6 mph - 0.00 in   Overcast
5:05 PM 33.8 °F 30.8 °F 33.8 °F 100% 30.06 in 1.8 mi ENE 3.5 mph - N/A   Overcast
5:07 PM 33.8 °F 30.8 °F 33.8 °F 100% 30.06 in 2.0 mi ENE 3.5 mph - N/A   Overcast
5:11 PM 33.8 °F 29.6 °F 33.8 °F 100% 30.05 in 2.0 mi ENE 4.6 mph - N/A   Overcast
5:18 PM 33.8 °F 29.6 °F 33.8 °F 100% 30.05 in 2.5 mi ENE 4.6 mph - N/A   Overcast
5:27 PM 33.8 °F 29.6 °F 33.8 °F 100% 30.05 in 2.5 mi ENE 4.6 mph - N/A   Overcast
5:41 PM 33.8 °F 29.6 °F 33.8 °F 100% 30.05 in 3.0 mi ENE 4.6 mph - N/A   Overcast
5:47 PM 33.8 °F 29.6 °F 33.8 °F 100% 30.05 in 3.0 mi ENE 4.6 mph - N/A   Overcast
5:53 PM 33.8 °F - 33.8 °F 100% 30.05 in 2.5 mi Calm Calm - N/A   Overcast
5:55 PM 33.1 °F 30.0 °F 33.1 °F 100% 30.05 in 2.5 mi NE 3.5 mph - N/A   Overcast
5:58 PM 33.8 °F 29.6 °F 33.8 °F 100% 30.05 in 2.5 mi NE 4.6 mph - N/A   Overcast
6:10 PM 33.8 °F 30.8 °F 33.8 °F 100% 30.05 in 1.8 mi ENE 3.5 mph - N/A   Overcast
6:13 PM 33.8 °F 29.6 °F 33.8 °F 100% 30.04 in 1.5 mi NE 4.6 mph - N/A   Overcast
6:18 PM 33.8 °F 30.8 °F 33.8 °F 100% 30.04 in 1.2 mi ENE 3.5 mph - N/A   Overcast
6:25 PM 33.8 °F 29.6 °F 33.8 °F 100% 30.05 in 1.0 mi ENE 4.6 mph - N/A   Mist
6:27 PM 33.8 °F 29.6 °F 33.8 °F 100% 30.04 in 1.0 mi ENE 4.6 mph - N/A   Mist
6:37 PM 33.8 °F 29.6 °F 33.8 °F 100% 30.05 in 1.0 mi ENE 4.6 mph - N/A   Mist
6:43 PM 33.8 °F 29.6 °F 33.8 °F 100% 30.06 in 1.2 mi ENE 4.6 mph - N/A   Overcast
6:47 PM 33.8 °F 29.6 °F 33.8 °F 100% 30.06 in 1.5 mi NE 4.6 mph - N/A   Overcast
6:49 PM 33.8 °F 30.8 °F 33.8 °F 100% 30.06 in 1.8 mi NE 3.5 mph - N/A   Overcast
6:51 PM 33.8 °F 30.8 °F 33.8 °F 100% 30.06 in 2.0 mi NE 3.5 mph - N/A   Overcast
6:55 PM 32.9 °F 28.5 °F 32.9 °F 100% 30.06 in 2.5 mi NE 4.6 mph - N/A   Overcast
6:57 PM 33.8 °F 30.8 °F 33.8 °F 100% 30.06 in 2.5 mi NE 3.5 mph - N/A   Overcast
7:06 PM 33.8 °F 30.8 °F 33.8 °F 100% 30.06 in 2.5 mi NNE 3.5 mph - N/A   Overcast
7:12 PM 33.8 °F 29.6 °F 33.8 °F 100% 30.07 in 3.0 mi North 4.6 mph - N/A   Overcast
7:17 PM 33.8 °F 29.6 °F 33.8 °F 100% 30.06 in 3.0 mi North 4.6 mph - N/A   Overcast
7:20 PM 33.8 °F 29.6 °F 33.8 °F 100% 30.06 in 2.5 mi North 4.6 mph - N/A   Overcast
7:25 PM 33.8 °F 30.8 °F 33.8 °F 100% 30.06 in 1.8 mi NNE 3.5 mph - N/A   Light Drizzle
7:27 PM 33.8 °F 30.8 °F 33.8 °F 100% 30.06 in 1.5 mi NNE 3.5 mph - N/A   Light Drizzle
7:37 PM 33.8 °F 30.8 °F 33.8 °F 100% 30.07 in 1.8 mi NNE 3.5 mph - N/A   Light Drizzle
7:41 PM 33.8 °F 29.6 °F 33.8 °F 100% 30.07 in 2.0 mi NNE 4.6 mph - N/A   Light Drizzle
7:53 PM 32.0 °F 27.5 °F 32.0 °F 100% 30.06 in 2.5 mi NNE 4.6 mph - N/A   Light Drizzle
7:55 PM 32.9 °F 28.5 °F 32.9 °F 100% 30.06 in 2.5 mi NNE 4.6 mph - 0.00 in   Light Drizzle
8:05 PM 32.0 °F 27.5 °F 32.0 °F 100% 30.07 in 3.0 mi NE 4.6 mph - N/A   Overcast
8:31 PM 32.0 °F 27.5 °F 32.0 °F 100% 30.06 in 4.0 mi NE 4.6 mph - N/A   Overcast
8:37 PM 32.0 °F 26.4 °F 32.0 °F 100% 30.06 in 4.0 mi NE 5.8 mph - N/A   Overcast
8:55 PM 32.7 °F 26.4 °F 32.7 °F 100% 30.05 in 3.0 mi ENE 6.9 mph - 0.01 in   Overcast
9:38 PM 32.0 °F 26.4 °F 32.0 °F 100% 30.06 in 5.0 mi NE 5.8 mph - N/A   Overcast
9:55 PM 32.7 °F 28.3 °F 32.7 °F 100% 30.07 in 5.0 mi Variable 4.6 mph - N/A   Overcast
10:32 PM 32.0 °F 26.4 °F 32.0 °F 100% 30.07 in 4.0 mi NNE 5.8 mph - N/A   Overcast
10:55 PM 32.7 °F 27.3 °F 32.7 °F 100% 30.08 in 4.0 mi NNE 5.8 mph - N/A   Overcast
11:00 PM 32.0 °F 25.6 °F 32.0 °F 100% 30.08 in 4.0 mi NNE 6.9 mph - N/A   Overcast
11:24 PM 32.0 °F 27.5 °F 32.0 °F 100% 30.08 in 3.0 mi NNE 4.6 mph - N/A   Overcast
11:26 PM 32.0 °F 27.5 °F 32.0 °F 100% 30.09 in 2.5 mi NE 4.6 mph - N/A   Overcast
11:37 PM 32.0 °F 25.6 °F 32.0 °F 100% 30.09 in 1.8 mi NNE 6.9 mph - N/A   Overcast
11:39 PM 32.0 °F 25.6 °F 32.0 °F 100% 30.09 in 1.5 mi NNE 6.9 mph - N/A   Overcast
11:42 PM 32.0 °F 27.5 °F 32.0 °F 100% 30.09 in 1.2 mi NE 4.6 mph - N/A   Overcast
11:46 PM 32.0 °F 28.7 °F 32.0 °F 100% 30.09 in 1.2 mi NNE 3.5 mph - N/A   Overcast
11:55 PM 32.4 °F 26.9 °F 32.4 °F 100% 30.09 in 1.2 mi NE 5.8 mph - N/A   Overcast
11:59 PM 32.0 °F 27.5 °F 32.0 °F 100% 30.09 in 1.5 mi NE 4.6 mph - N/A   Overcast